| time (UTC) | temp F | wind direction | speed knots | gust knots | rain 1hr in | rain 24hr in | rain mn in | humidity % | barometer mb |
| 20260503184535 | 67 | 281 | 0.9 | 3.5 | 0.00 | 0.00 | 0.00 | 29 | 1017.5 |
| 20260503183033 | 65 | 141 | 3.5 | 8.7 | 0.00 | 0.00 | 0.00 | 33 | 1017.7 |
| 20260503181533 | 65 | 207 | 0.9 | 6.1 | 0.00 | 0.00 | 0.00 | 34 | 1018.1 |
| 20260503180032 | 65 | 78 | 4.3 | 8.7 | 0.00 | 0.00 | 0.00 | 33 | 1018.1 |
| 20260503174532 | 64 | 174 | 1.7 | 6.1 | 0.00 | 0.00 | 0.00 | 34 | 1018.2 |
| 20260503173053 | 62 | 207 | 4.3 | 10.4 | 0.00 | 0.00 | 0.00 | 36 | 1018.5 |
| 20260503171532 | 63 | 193 | 0.9 | 6.1 | 0.00 | 0.00 | 0.00 | 40 | 1018.7 |
| 20260503081547 | 33 | 0 | 0.0 | 0.9 | 0.00 | 0.00 | 0.00 | 95 | 1017.7 |
| 20260503071537 | 35 | 0 | 0.0 | 1.7 | 0.00 | 0.00 | 0.00 | 95 | 1017.2 |
| 20260503054536 | 36 | 0 | 0.0 | 0.9 | 0.00 | 0.00 | 0.00 | 93 | 1016.9 |
| 20260503053030 | 37 | 0 | 0.0 | 0.9 | 0.00 | 0.00 | 0.00 | 93 | 1016.7 |
| 20260503051530 | 37 | 177 | 0.0 | 0.9 | 0.00 | 0.00 | 0.00 | 92 | 1016.7 |
| 20260503050028 | 38 | 0 | 0.0 | 0.9 | 0.00 | 0.00 | 0.00 | 91 | 1016.6 |
| 20260503044540 | 38 | 0 | 0.0 | 0.9 | 0.00 | 0.00 | 0.00 | 91 | 1016.7 |
| 20260503043029 | 39 | 0 | 0.0 | 2.6 | 0.00 | 0.00 | 0.00 | 90 | 1016.5 |
| 20260503041535 | 39 | 165 | 0.9 | 2.6 | 0.00 | 0.00 | 0.00 | 89 | 1016.3 |
| 20260503040029 | 40 | 0 | 0.0 | 2.6 | 0.00 | 0.00 | 0.00 | 89 | 1016.1 |
| 20260503034528 | 40 | 0 | 0.0 | 1.7 | 0.00 | 0.00 | 0.00 | 89 | 1016.0 |
| 20260503033027 | 40 | 0 | 0.0 | 2.6 | 0.00 | 0.00 | 0.00 | 88 | 1015.8 |
| 20260503031528 | 41 | 132 | 0.0 | 0.9 | 0.00 | 0.00 | 0.00 | 86 | 1015.8 |
| 20260503030030 | 42 | 0 | 0.0 | 3.5 | 0.00 | 0.00 | 0.00 | 85 | 1015.8 |
| 20260503024528 | 42 | 207 | 0.9 | 2.6 | 0.00 | 0.00 | 0.00 | 84 | 1015.6 |
| 20260503023031 | 43 | 0 | 0.0 | 1.7 | 0.00 | 0.00 | 0.00 | 82 | 1015.5 |
| 20260503021528 | 44 | 183 | 0.9 | 1.7 | 0.00 | 0.00 | 0.00 | 80 | 1015.2 |
| 20260503020028 | 46 | 153 | 0.9 | 3.5 | 0.00 | 0.00 | 0.00 | 76 | 1015.2 |
| 20260503014535 | 47 | 245 | 0.9 | 4.3 | 0.00 | 0.00 | 0.00 | 71 | 1015.0 |
| 20260503013036 | 48 | 266 | 1.7 | 3.5 | 0.00 | 0.00 | 0.00 | 66 | 1014.8 |
| 20260503011530 | 50 | 245 | 0.9 | 6.1 | 0.00 | 0.00 | 0.00 | 64 | 1014.5 |
| 20260503010030 | 53 | 193 | 0.9 | 5.2 | 0.00 | 0.00 | 0.00 | 52 | 1014.2 |
| 20260503004530 | 54 | 58 | 0.9 | 3.5 | 0.00 | 0.00 | 0.00 | 52 | 1013.9 |
| 20260503003030 | 54 | 313 | 0.0 | 5.2 | 0.00 | 0.00 | 0.00 | 49 | 1013.6 |
| 20260503001530 | 55 | 9 | 0.0 | 4.3 | 0.00 | 0.00 | 0.00 | 46 | 1013.5 |
| 20260503000036 | 57 | 74 | 0.0 | 11.3 | 0.00 | 0.00 | 0.00 | 44 | 1013.2 |
| 20260502234531 | 58 | 102 | 2.6 | 6.1 | 0.00 | 0.00 | 0.00 | 40 | 1012.9 |
| 20260502233028 | 59 | 216 | 1.7 | 6.1 | 0.00 | 0.00 | 0.00 | 39 | 1012.6 |
| 20260502231530 | 59 | 219 | 1.7 | 4.3 | 0.00 | 0.00 | 0.00 | 41 | 1012.4 |
| 20260502230032 | 60 | 118 | 1.7 | 7.0 | 0.00 | 0.00 | 0.00 | 38 | 1012.3 |
| 20260502224529 | 62 | 153 | 1.7 | 11.3 | 0.00 | 0.00 | 0.00 | 37 | 1012.4 |
| 20260502223030 | 61 | 149 | 3.5 | 11.3 | 0.00 | 0.00 | 0.00 | 38 | 1012.3 |
| 20260502221534 | 62 | 129 | 1.7 | 10.4 | 0.00 | 0.00 | 0.00 | 36 | 1011.9 |
| 20260502220034 | 62 | 236 | 4.3 | 9.6 | 0.00 | 0.00 | 0.00 | 37 | 1011.8 |
| 20260502214529 | 65 | 160 | 5.2 | 13.0 | 0.00 | 0.00 | 0.00 | 35 | 1011.4 |
| 20260502213027 | 64 | 224 | 3.5 | 7.8 | 0.00 | 0.00 | 0.00 | 36 | 1011.1 |
| 20260502211528 | 63 | 211 | 4.3 | 9.6 | 0.00 | 0.00 | 0.00 | 39 | 1011.0 |
| 20260502210030 | 64 | 191 | 1.7 | 5.2 | 0.00 | 0.00 | 0.00 | 40 | 1011.0 |
| 20260502204528 | 63 | 38 | 2.6 | 5.2 | 0.00 | 0.00 | 0.00 | 52 | 1011.0 |
| 20260502203029 | 62 | 92 | 0.9 | 4.3 | 0.00 | 0.00 | 0.00 | 53 | 1011.0 |
| 20260502201534 | 62 | 146 | 2.6 | 7.8 | 0.00 | 0.00 | 0.00 | 54 | 1011.1 |
| 20260502200028 | 63 | 59 | 1.7 | 6.1 | 0.00 | 0.00 | 0.00 | 48 | 1011.1 |
| 20260502194529 | 63 | 33 | 0.0 | 2.6 | 0.00 | 0.00 | 0.00 | 50 | 1011.3 |
| 20260502193030 | 63 | 0 | 0.9 | 3.5 | 0.00 | 0.00 | 0.00 | 51 | 1011.6 |
| 20260502191533 | 62 | 281 | 0.9 | 2.6 | 0.00 | 0.00 | 0.00 | 53 | 1011.7 |
| 20260502190031 | 61 | 219 | 2.6 | 6.1 | 0.00 | 0.00 | 0.00 | 54 | 1011.9 |